Regional Weather Roundup
Issued by NWS

Home | Current Version | Previous Version | Text Only | Print | Product List | Glossary Off
Versions: 1 2 3 4 5 6 7 8 9 10 11 12 13 14 15 16 17 18 19 20 21 22 23 24 25 26 27 28 29 30 31 32 33 34 35 36 37 38 39 40 41 42 43 44 45 46 47 48 49 50

976
ASUS43 KDMX 191601
RWRIA

WEATHER ROUNDUP FOR IOWA
NATIONAL WEATHER SERVICE DES MOINES IA
1100 AM CDT THU OCT 19 2017

NOTE: "FAIR" INDICATES FEW OR NO CLOUDS BELOW 12,000 FEET WITH NO
SIGNIFICANT WEATHER AND/OR OBSTRUCTIONS TO VISIBILITY.

* - THESE STATIONS ARE NOT NWS STATIONS...THUS NOT UNDER NWS
QUALITY CONTROL.  THEY ALSO DO NOT REPORT WEATHER SUCH
AS PRECIPITATION OR FOG.

IAZ001>003-012>014-020>022-031>034-043>046-191700-
   NORTHWEST IOWA

CITY           SKY/WX    TMP DP  RH WIND       PRES   REMARKS
CARROLL *      SUNNY     75  50  41 SE17      30.11S
CHEROKEE *     SUNNY     62  34  35 S15G21    30.08F
DENISON *      SUNNY     63  37  39 SE10      30.11S
LE MARS *      SUNNY     63  37  39 S14       30.06S
ORANGE CITY *  SUNNY     63  37  39 S14       30.07S
SHELDON *      SUNNY     61  32  33 SE15G23   30.06S
SIOUX CITY     SUNNY     61  43  51 S9        30.07S
SPENCER        SUNNY     60  35  39 SE13      30.09F
STORM LAKE *   SUNNY     63  30  29 SE12G22   30.09S
$$

IAZ055>058-069>071-079>083-090>094-191700-
   SOUTHWEST IOWA

CITY           SKY/WX    TMP DP  RH WIND       PRES   REMARKS
ATLANTIC *     SUNNY     64  46  52 E9        30.10F
AUDUBON *      SUNNY     64  37  36 SE10G17   30.12S
CLARINDA *     SUNNY     64  54  68 VRB5      30.12S
COUNCIL BLFS * SUNNY     63  52  67 SE12      30.09S
CRESTON *      SUNNY     63  50  63 SE14      30.13S
HARLAN  *      SUNNY     64  45  48 VRB7G16   30.13F
LAMONI         SUNNY     61  53  75 SE6       30.13S
RED OAK *      SUNNY     64  52  63 SE8       30.10S
SHENANDOAH *   SUNNY     64  54  68 SE8       30.10S
$$

IAZ047>049-059>061-072>074-084-191700-
   CENTRAL IOWA

CITY           SKY/WX    TMP DP  RH WIND       PRES   REMARKS
AMES           SUNNY     61  42  49 SE8       30.14R
ANKENY *       SUNNY     63  37  39 SE13      30.14F
BOONE *        SUNNY     63  34  34 SE12      30.12F
CHARITON *     SUNNY     64  46  52 SE10      30.13S
DES MOINES     PTSUNNY   64  34  32 SE12      30.13S
KNOXVILLE *    SUNNY     64  34  32 SE16      30.13S
MARSHALLTOWN   SUNNY     61  36  39 SE13      30.15R
NEWTON *       SUNNY     63  32  31 SE12      30.14S
PELLA *        SUNNY     65  30  26 SE9       30.15S
PERRY *          N/A     64  30  27 SE8       30.13S
$$

IAZ004>006-015-016-023>025-035-036-191700-
   NORTH CENTRAL IOWA

CITY           SKY/WX    TMP DP  RH WIND       PRES   REMARKS
ALGONA *       CLOUDY    59  34  38 S12       30.11S
CLARION *      CLOUDY    63  32  31 SE17      30.12F
ESTHERVILLE    SUNNY     56  32  40 S17       30.09S
FORT DODGE *   SUNNY     60  34  37 SE12      30.13R
MASON CITY     CLOUDY    60  31  33 SE10      30.14S
FOREST CITY *    N/A     59  34  38 SE10      30.12F
WEBSTER CITY * SUNNY     61  34  36 SE15      30.12R
IOWA FALLS *     N/A     62  32  32 SE12      30.15F
$$

IAZ007>011-017>019-026>030-037>042-050>054-066-191700-
   NORTHEAST IOWA

CITY           SKY/WX    TMP DP  RH WIND       PRES   REMARKS
CEDAR RAPIDS   SUNNY     64  33  31 SE14      30.16R
CHARLES CITY * CLOUDY    59  32  36 SE8       30.15S
CLINTON *      SUNNY     64  34  32 E14       30.19S
DECORAH *      SUNNY     63  30  29 SE6       30.14S
DUBUQUE        SUNNY     62  30  29 E7        30.19R
MONTICELLO *   SUNNY     64  28  25 E12       30.18R
OELWEIN *      SUNNY     64  28  25 SE12      30.16S
WATERLOO       MOSUNNY   58  35  42 SE9       30.15S
$$

IAZ064-065-067-068-078-191700-
   EAST CENTRAL IOWA

CITY           SKY/WX    TMP DP  RH WIND       PRES   REMARKS
DAVENPORT      SUNNY     64  32  30 E14       30.19S
IOWA CITY      SUNNY     66  37  34 SE8       30.18R
MUSCATINE *    SUNNY     66  41  39 VRB6G13   30.17S
QUAD CITIES    SUNNY     65  42  43 E10       30.17S
$$

IAZ062-063-075>077-085>089-095>099-191700-
   SOUTHEAST IOWA

CITY           SKY/WX    TMP DP  RH WIND       PRES   REMARKS
BURLINGTON     SUNNY     62  52  69 E6        30.17R
FAIRFIELD *    SUNNY     64  45  48 SE13      30.15S
FORT MADISON *   N/A     64  52  63 E6        30.17S HAZE
KEOKUK *       SUNNY     64  52  63 SE5       30.16S
OSKALOOSA *      N/A     66  37  33 SE14      30.15S
OTTUMWA        SUNNY     65  42  43 E12       30.15R
WASHINGTON *   SUNNY     68  36  30 E13       30.17S
$$

ABBREVIATIONS USED IN REMARKS
   TC - TEMPERATURES IN CELSIUS
  WCI - WIND CHILL INDEX
   HX - HEAT INDEX
  VSB - VISIBILITY
$$





USA.gov is the U.S. government's official web portal to all federal, state and local government web resources and services.